Date,TemperatureHighF,TemperatureAvgF,TemperatureLowF,DewpointHighF,DewpointAvgF,DewpointLowF,HumidityHigh,HumidityAvg,HumidityLow,PressureMaxIn,PressureMinIn,WindSpeedMaxMPH,WindSpeedAvgMPH,GustSpeedMaxMPH,PrecipitationSumIn
2013-5-1,77,36,42,40,-29,-100,76,17,16,30.45,30.30,8,-467,13,0.00
2013-5-2,82,34,43,47,-39,-100,86,12,1,30.47,30.26,7,-552,7,0.00
2013-5-3,92,34,51,36,-30,-100,53,17,1,30.48,30.32,8,-466,12,0.00
2013-5-4,78,37,49,49,-23,-100,76,22,27,30.36,30.17,5,-451,9,0.00
2013-5-5,76,35,-90,43,-27,-100,89,19,1,30.29,30.14,9,-440,12,0.00
2013-5-6,109,36,42,45,-25,-100,91,23,1,30.25,30.08,10,-444,14,0.00
2013-5-7,81,40,47,54,-17,-100,94,27,1,30.17,30.03,9,-436,11,0.00
2013-5-8,72,37,54,63,-11,-100,93,43,61,30.14,29.98,9,-435,17,0.05
2013-5-9,70,35,52,57,-16,-100,96,38,54,30.01,29.87,8,-455,13,0.00
2013-5-10,77,31,-90,57,-29,-100,86,28,44,29.99,29.82,8,-529,10,0.00
2013-5-11,69,35,61,64,-14,-100,92,46,76,29.83,29.66,10,-460,13,0.05
2013-5-12,60,30,48,49,-24,-100,88,31,27,29.88,29.68,18,-444,20,0.00
2013-5-13,50,26,42,29,-30,-100,54,26,42,30.11,29.88,10,-445,18,0.00
2013-5-14,58,30,40,31,-28,-100,69,23,1,30.13,30.03,8,-429,16,0.00
2013-5-15,65,27,33,51,-26,-100,93,36,47,30.06,29.61,16,-470,27,0.06
2013-5-16,110,41,50,42,-23,-100,72,17,1,29.86,29.69,14,-449,22,0.00
2013-5-17,71,36,49,43,-20,-100,64,24,27,30.22,29.87,9,-408,15,0.00
2013-5-18,72,38,40,48,-16,-100,95,29,31,30.32,30.21,9,-414,16,0.00
2013-5-19,59,31,47,59,-17,-100,100,48,85,30.30,30.16,15,-456,17,0.07
2013-5-20,116,40,56,100,-11,-100,93,39,53,30.16,29.93,5,-451,7,0.00
2013-5-21,88,33,59,71,-28,-100,96,31,49,29.95,29.77,7,-564,12,0.00
2013-5-22,78,21,-90,71,-51,-100,95,25,73,29.89,29.77,8,-696,18,0.00
2013-5-23,75,37,66,69,-14,-100,100,43,76,29.82,29.72,8,-476,12,0.18
2013-5-24,54,14,44,51,-56,-100,92,27,85,30.04,29.66,14,-703,21,0.03
2013-5-25,46,12,-90,43,-56,-100,91,29,84,30.04,29.94,14,-671,24,0.01
2013-5-26,57,18,-90,45,-44,-100,77,28,54,30.14,29.89,16,-592,23,0.00
2013-5-27,70,29,59,41,-40,-100,48,14,26,30.23,30.13,10,-550,23,0.00
2013-5-28,70,29,40,47,-34,-100,93,24,32,30.23,30.12,9,-535,17,0.00
2013-5-29,77,16,63,69,-63,-100,91,18,75,30.12,29.92,10,-777,15,0.00
2013-5-30,88,24,76,72,-52,-100,86,17,50,30.11,30.04,9,-690,13,0.00
2013-5-31,91,26,65,72,-52,-100,72,16,45,30.11,29.91,7,-683,11,0.00